This demonstration page uses our WeatherBlox Daily Observations layout. Learn more.

Left ArrowRight Arrow

Hourly Observations for November 9, 2016

Temp ( °F °C ) Dew Point ( °F °C ) Humidity (%) Winds ( mph kmh ) Pressure ( in mb ) Visibility ( mi km ) Precip ( " mm )
12:59 am 00:59 Clear 53 11.7 44 6.7 72 72 SSW 3 6 30.00 1016 10 16 0.00 0.00
1:59 am 01:59 Mostly Cloudy 54 12.2 43 6.1 67 67 SW 5 7 29.99 1016 10 16 0.00 0.00
2:59 am 02:59 Mostly Cloudy 54 12.2 44 6.7 69 69 SW 8 13 29.97 1015 10 16 0.00 0.00
3:59 am 03:59 Mostly Cloudy 53 11.7 44 6.7 72 72 SW 6 9 29.96 1014 10 16 0.00 0.00
4:59 am 04:59 Mostly Cloudy 52 11.1 44 6.7 75 75 SW 7 11 29.94 1014 10 16 0.00 0.00
5:59 am 05:59 Mostly Cloudy 53 11.7 45 7.2 74 74 SW 6 9 29.93 1014 10 16 0.00 0.00
6:59 am 06:59 Cloudy 53 11.7 45 7.2 74 74 SW 6 9 29.93 1014 10 16 0.00 0.00
7:59 am 07:59 Cloudy 54 12.2 45 7.2 72 72 WSW 9 15 29.95 1014 9 14 0.00 0.00
8:59 am 08:59 Cloudy 55 12.8 47 8.3 74 74 W 6 9 29.94 1014 7 11 0.00 0.00
9:59 am 09:59 Cloudy with Light Rain 55 12.8 50 10 83 83 WNW 14 22 29.93 1014 6 10 0.00 0.03
10:59 am 10:59 Cloudy with Haze 57 13.9 51 10.6 81 81 NNW 9 15 29.92 1013 6 10 0.01 0.25
11:59 am 11:59 Cloudy with Haze 57 13.9 51 10.6 81 81 VRB 3 6 29.91 1013 6 10 0.01 0.25
12:59 pm 12:59 Mostly Cloudy with Haze 58 14.4 52 11.1 81 81 VRB 5 7 29.88 1012 6 10 0.00 0.03
1:59 pm 13:59 Cloudy with Haze 59 15 52 11.1 78 78 NNW 5 7 29.87 1012 6 10 0.00 0.00
2:59 pm 14:59 Partly Cloudy 60 15.6 51 10.6 72 72 Calm 29.87 1012 7 11 0.00 0.00
3:59 pm 15:59 Partly Cloudy 60 15.6 51 10.6 72 72 W 6 9 29.88 1012 7 11 0.00 0.00
4:59 pm 16:59 Mostly Cloudy 58 14.4 52 11.1 81 81 WSW 6 9 29.88 1012 7 11 0.00 0.00
5:44 pm 17:44 Mostly Cloudy 58 14.4 53 11.7 84 84 WSW 6 9 29.91 1013 7 11 0.00 0.00
5:59 pm 17:59 Mostly Cloudy 58 14.4 53 11.7 84 84 WSW 6 9 29.91 1013 7 11 0.00 0.00
6:12 pm 18:12 Cloudy with Thunderstorms 58 14.4 53 11.7 84 84 WSW 7 11 29.91 1013 7 11 0.00 0.00
6:31 pm 18:31 Cloudy with Thunderstorms 54 12.2 51 10.6 90 90 N 15 24 29.91 1013 3 5 0.04 1.02
6:35 pm 18:35 Cloudy with Thunderstorms 54 12.2 51 10.6 90 90 N 15 24 29.91 1013 3 5 0.06 1.52
6:59 pm 18:59 Cloudy with Thunderstorms 54 12.2 52 11.1 93 93 NW 8 13 29.93 1014 8 13 0.10 2.54
7:09 pm 19:09 Mostly Cloudy 55 12.8 52 11.1 90 90 NW 8 13 29.94 1014 10 16 0.00 0.03
7:52 pm 19:52 Cloudy 56 13.3 52 11.1 87 87 WNW 12 19 29.94 1014 10 16 0.00 0.03
7:59 pm 19:59 Cloudy 55 12.8 52 11.1 90 90 WNW 14 22 29.94 1014 10 16 0.00 0.03
8:47 pm 20:47 Cloudy 55 12.8 52 11.1 90 90 NNW 15 24 29.97 1015 10 16 0.00 0.00
8:59 pm 20:59 Cloudy 55 12.8 51 10.6 87 87 NNW 14 22 29.96 1015 10 16 0.00 0.00
9:59 pm 21:59 Cloudy 55 12.8 50 10 83 83 NNW 22 35 29.97 1015 10 16 0.00 0.00
10:59 pm 22:59 Cloudy with Light Rain 55 12.8 50 10 83 83 NNW 15 24 29.98 1015 6 10 0.00 0.03
11:59 pm 23:59 Cloudy 54 12.2 49 9.4 83 83 NNW 18 30 29.97 1015 10 16 0.04 1.02

Powered by AerisWeather